This is the latest recevied weather packets stored in our database for station/object FW9321. If no packets are shown the sender has not sent any weather packets the latest 10 day(s).
| Time | Temp. | Humidity | Pressure | Rain* | Wind** | Luminosity | Snow |
|---|---|---|---|---|---|---|---|
| 1777625523 | 11.67° C | 55% | 822.5 hPa | 0 mm | - | - | - |
| 1777625407 | 11.67° C | 53% | 822.2 hPa | 0 mm | - | - | - |
| 1777625165 | 11.67° C | 48% | 822.5 hPa | 0 mm | - | - | - |
| 1777625043 | 11.67° C | 48% | 821.8 hPa | 0 mm | - | - | - |
| 1777624922 | 11.67° C | 49% | 822.4 hPa | 0 mm | - | - | - |
| 1777624803 | 11.67° C | 48% | 822.5 hPa | 0 mm | - | - | - |
| 1777624683 | 11.67° C | 48% | 822.5 hPa | 0 mm | - | - | - |
| 1777624563 | 11.67° C | 49% | 822.4 hPa | 0 mm | - | - | - |
| 1777624443 | 11.67° C | 51% | 822.6 hPa | 0 mm | - | - | - |
| 1777624327 | 12.78° C | 51% | 822.5 hPa | 0 mm | - | - | - |
| 1777624203 | 12.78° C | 49% | 822.6 hPa | 0 mm | - | - | - |
| 1777624087 | 12.78° C | 50% | 822.6 hPa | 0 mm | - | - | - |
| 1777623722 | 12.78° C | 49% | 822.5 hPa | 0 mm | - | - | - |
| 1777623603 | 12.78° C | 50% | 822.5 hPa | 0 mm | - | - | - |
| 1777623483 | 12.78° C | 50% | 822.6 hPa | 0 mm | - | - | - |
| 1777623483 | 12.78° C | 50% | 822.7 hPa | 0 mm | - | - | - |
| 1777623368 | 12.78° C | 53% | 822.3 hPa | 0 mm | - | - | - |
| 1777623243 | 12.78° C | 53% | 822.3 hPa | 0 mm | - | - | - |
| 1777623005 | 12.78° C | 50% | 822.6 hPa | 0 mm | - | - | - |
| 1777622884 | 12.78° C | 51% | 822.6 hPa | 0 mm | - | - | - |
| 1777622884 | 12.78° C | 51% | 822.5 hPa | 0 mm | - | - | - |
| 1777622522 | 12.78° C | 50% | 822.5 hPa | 0 mm | - | - | - |
| 1777622285 | 12.78° C | 50% | 822.6 hPa | 0 mm | - | - | - |
| 1777622163 | 12.78° C | 50% | 822.5 hPa | 0 mm | - | - | - |
| 1777622044 | 12.78° C | 50% | 822.6 hPa | 0 mm | - | - | - |
* Rain latest hour (hover to see other rain measurements)
** Current wind speed in m/s (hover to see current wind gust speed)